Hourly Data Report for February 16, 2021

KUGAARUK CLIMATE
NUNAVUT
Current Station Operator: ECCC - MSC

68°32'15.060" N
89°47'47.020" W
15.80 m
2303094
71407
NBB

Download Data

Hourly Data (February 2021)
Hourly Data Report for February 16, 2021
TIME
LST
Temp Definition
°C
Dew Point Definition
°C
Rel Hum Definition
%
Precip. Amount Definition
mm

Wind Dir Definition
10's deg

Wind Spd Definition
km/h
Visibility Definition
km
Stn Press Definition
kPa
Hmdx Definition


Wind Chill Definition


Weather Definition


00:00 -30.4 -33.7 73 0.0 25 32   100.39   -47 LegendNANA
01:00 -30.5 -33.9 72 0.0 24 39   100.40   -48 LegendNANA
02:00 -30.9 -34.3 72 0.0 25 28   100.46   -46 LegendNANA
03:00 -31.1 -34.6 71 0.0 25 30   100.47   -47 LegendNANA
04:00 -31.3 -34.9 71 0.0 23 31   100.47   -48 LegendNANA
05:00 -31.1 -34.6 71 0.0 23 28   100.44   -47 LegendNANA
06:00 -30.6 -34.3 70 0.0 24 28   100.38   -46 LegendNANA
07:00 -30.5 -34.3 70 0.0 25 27   100.36   -46 LegendNANA
08:00 -30.3 -34.1 70 0.0 24 23   100.38   -44 LegendNANA
09:00 -29.3 -33.2 69 0.0 26 23   100.35   -43 LegendNANA
10:00 -29.3 -33.3 68 0.0 24 23   100.31   -43 LegendNANA
11:00 -30.8 -34.9 68 0.0 26 25   100.33   -45 LegendNANA
12:00 -31.7 -35.6 68 0.0 26 19   100.32   -45 LegendNANA
13:00 -32.7 -36.8 67 0.0 23 20   100.33   -47 LegendNANA
14:00 -33.3 -37.6 66 0.0 25 22   100.37   -48 LegendNANA
15:00 -34.1 -37.8 69 0.0 24 23   100.41   -49 LegendNANA
16:00 -34.7 -38.5 69 0.0 24 28   100.44   -51 LegendNANA
17:00 -35.2 -38.9 69 0.0 25 21   100.49   -50 LegendNANA
18:00 -35.9 -39.6 69 0.0 23 25   100.52   -52 LegendNANA
19:00 -36.1 -39.9 68 0.0 23 32   100.51   -54 LegendNANA
20:00 -36.7 -40.5 68 0.0 24 28   100.53   -54 LegendNANA
21:00 -36.8 -40.6 68 0.0 22 31   100.53   -55 LegendNANA
22:00 -37.1 -40.8 68 0.0 23 21   100.59   -52 LegendNANA
23:00 -36.7 -40.6 67 0.0 23 27   100.57   -54 LegendNANA

Notes on Data Quality.

Legend

  • E = Estimated
  • M = Missing
  • NA = Not Available*
  • [empty] = Indicates an unobserved value
Date modified: